Regional Weather Roundup
Issued by NWS

Home | Current Version | Previous Version | Graphics & Text | Print | Product List | Glossary On
Versions: 1 2 3 4 5 6 7 8 9 10 11 12 13 14 15 16 17 18 19 20 21 22 23 24 25 26 27 28 29
000
ASUS45 KGTF 200510
RWRMT
MONTANA HOURLY WEATHER ROUNDUP
NATIONAL WEATHER SERVICE GREAT FALLS MT
1100 PM MDT SUN APR 19 2015

NOTE: "FAIR" INDICATES FEW OR NO CLOUDS BELOW 12000 FEET WITH NO
SIGNIFICANT WEATHER AND/OR OBSTRUCTIONS TO VISIBILITY.

MTZ001>007-043-200600-
WEST OF THE DIVIDE

CITY           SKY/WX    TMP DP  RH WIND       PRES   REMARKS
KALISPELL      CLEAR     39  33  79 CALM      30.00S
MISSOULA       CLEAR     44  29  55 W5        30.02S
BUTTE          PTCLDY    41  23  48 S3        30.06R
DEER LODGE       N/A     39  25  56 NW8       30.09R
EUREKA           N/A     43  28  56 CALM      30.00S
HAMILTON         N/A     45  28  53 S2        30.02R
LIBBY            N/A     46  30  53 SE3       30.00S
$$

MTZ008-052>055-200600-
SOUTHWEST MONTANA

CITY           SKY/WX    TMP DP  RH WIND       PRES   REMARKS
BOZEMAN        MOCLDY    42  25  50 W6        30.06R
DILLON         MOCLDY    43  25  49 VRB6      30.03R
$$

MTZ009-010-012-014-046-048-049-054-200600-
EAST SLOPES AND CENTRAL MONTANA

CITY           SKY/WX    TMP DP  RH WIND       PRES   REMARKS
CUT BANK       CLEAR     38  18  44 SE6       30.05F
GREAT FALLS    CLEAR     37  23  56 SE7       30.06F WCI  32
MALMSTROM AFB  CLEAR     35  26  70 S10       30.07F WCI  27
HELENA         CLEAR     43  25  49 W8        30.06F
$$

MTZ011-013-016-021-045-047-050-051-200600-
NORTH CENTRAL MONTANA

CITY           SKY/WX    TMP DP  RH WIND       PRES   REMARKS
HAVRE          CLEAR     31  19  61 SE3       30.07F
LEWISTOWN      CLEAR     31  20  63 S9        30.08S WCI  23
CHINOOK          N/A     34  19  55 CALM      30.08S
FORT BENTON      N/A     43  19  39 NE5       30.09F
$$

MTZ017>020-022>042-056>058-061-062-200600-
EASTERN PLAINS

CITY           SKY/WX    TMP DP  RH WIND       PRES   REMARKS
BAKER          PTCLDY    32  13  45 W6        30.01F WCI  26
BILLINGS       CLOUDY    44  18  35 CALM      30.08F
GLASGOW        MOCLDY    36  22  56 N6        30.04F WCI  31
JORDAN           N/A     31  19  61 W3        30.06S
LIVINGSTON     PTCLDY    40  22  48 SE9       30.06F
MILES CITY     CLEAR     34  17  50 W10       30.05F WCI  26
SIDNEY         CLEAR     30  14  51 W12       30.00S WCI  21
WOLF POINT     PTCLDY    37  22  54 NW9       30.03F WCI  30
BIG TIMBER       N/A     41  21  45 CALM      30.09S
FORSYTH          N/A     39  19  45 CALM      30.07S
PLENTYWOOD       N/A     30  16  55 NW7       29.99S WCI  23
POPLAR           N/A     34  16  47 N3        30.02F
$$

REGIONAL REPORTS...DAKOTAS

CITY           SKY/WX    TMP DP  RH WIND       PRES   REMARKS
WILLISTON      CLEAR     38  14  37 NW12      29.97F WCI  30
MINOT          CLEAR     36  27  69 W13       29.87F WCI  27
DICKINSON      CLEAR     27  20  75 NW10      29.93F WCI  17
BEACH          FAIR      32  10  40 NW10      30.00S WCI  24
CROSBY         FAIR      28  18  64 NW10      29.96S WCI  19
WATFORD CITY   FAIR      28  19  69 SW7       29.95S WCI  21
BISMARCK       CLEAR     40  25  55 NW16      29.90S
GRAND FORKS    CLOUDY    35  28  75 N23G32    29.74S WCI  23
FARGO          CLOUDY    40  34  79 N16       29.73S
BUFFALO SD       N/A     31  16  54 NW13      29.92F WCI  21
RAPID CITY     PTCLDY    34  21  59 NW10      29.99S WCI  26
$$

REGIONAL REPORTS...WYOMING/IDAHO/WASHINGTON

CITY           SKY/WX    TMP DP  RH WIND       PRES   REMARKS
GILLETTE       CLOUDY    34  21  59 CALM      30.05S
SHERIDAN       PTCLDY    33  19  56 W10       30.07F WCI  25
BUFFALO WY     PTCLDY    37  15  40 NW10      30.07F WCI  30
CODY           MOCLDY    37  21  52 NW5       30.08S
YELLOWSTONE LA   N/A     29  21  72 CALM      30.09R
IDAHO FALLS    PTCLDY    49  27  42 SW7       29.97S
SALMON         CLEAR     55  21  26 N9        29.98R
BOISE          CLEAR     54  31  41 CALM      29.95S
SPOKANE        PTCLDY    54  31  41 SW8       29.98F
$$

REGIONAL REPORTS...ALBERTA

CITY           SKY/WX    TMP DP  RH WIND       PRES   REMARKS
EDMONTON       CLEAR     39  28  65 S5        29.98F
CALGARY        CLEAR     41  23  48 S6        30.02F
LETHBRIDGE     CLEAR     34  27  75 S12       30.04F WCI  25
MEDICINE HAT   CLEAR     34  23  64 S5        30.05F
$$

REGIONAL REPORTS...SASKATCHEWAN

CITY           SKY/WX    TMP DP  RH WIND       PRES   REMARKS
SWIFT CURRENT  PTCLDY    37  21  52 NW5       30.03F
REGINA         CLEAR     28  18  64 NW8       30.00S WCI  20
SASKATOON      CLEAR     34  14  44 NE6       30.05S WCI  29
$$



USA.gov is the U.S. government's official web portal to all federal, state and local government web resources and services.